Météo par heure à Kissimmee

Ce jour, 8 Mars, Lundi

Heure Température Précipitation Vent Pression Humidité
00:00 +12°C° 0 mm 4 m/s 769 mmHg 52%
01:00 +11°C° 0 mm 4 m/s 769 mmHg 54%
02:00 +11°C° 0 mm 4 m/s 769 mmHg 55%
03:00 +11°C° 0 mm 4 m/s 769 mmHg 56%
04:00 +10°C° 0 mm 4 m/s 769 mmHg 57%
05:00 +10°C° 0 mm 4 m/s 769 mmHg 57%
06:00 +10°C° 0 mm 4 m/s 769 mmHg 58%
07:00 +10°C° 0 mm 3 m/s 770 mmHg 58%
08:00 +12°C° 0 mm 4 m/s 770 mmHg 56%
09:00 +14°C° 0 mm 5 m/s 771 mmHg 55%
10:00 +16°C° 0 mm 5 m/s 771 mmHg 53%
11:00 +17°C° 0 mm 5 m/s 771 mmHg 53%
12:00 +17°C° 0 mm 5 m/s 771 mmHg 54%
13:00 +17°C° 0 mm 5 m/s 771 mmHg 55%
14:00 +19°C° 0 mm 5 m/s 771 mmHg 53%
15:00 +19°C° 0 mm 6 m/s 771 mmHg 51%
16:00 +20°C° 0 mm 6 m/s 770 mmHg 49%
17:00 +19°C° 0 mm 5 m/s 771 mmHg 53%
18:00 +17°C° 0 mm 4 m/s 771 mmHg 57%
19:00 +15°C° 0 mm 4 m/s 771 mmHg 61%
20:00 +14°C° 0 mm 3 m/s 771 mmHg 63%
21:00 +14°C° 0 mm 3 m/s 772 mmHg 65%
22:00 +13°C° 0 mm 3 m/s 772 mmHg 67%
23:00 +13°C° 0 mm 3 m/s 772 mmHg 69%

Demain, 9 Mars, Mardi

Heure Température Précipitation Vent Pression Humidité
00:00 +12°C° 0 mm 3 m/s 772 mmHg 71%
01:00 +12°C° 0 mm 3 m/s 772 mmHg 73%
02:00 +13°C° 0 mm 2 m/s 772 mmHg 75%
03:00 +13°C° 0 mm 2 m/s 771 mmHg 77%
04:00 +13°C° 0 mm 2 m/s 771 mmHg 79%
05:00 +13°C° 0 mm 2 m/s 771 mmHg 78%
06:00 +13°C° 0 mm 2 m/s 772 mmHg 77%
07:00 +13°C° 0 mm 2 m/s 772 mmHg 77%
08:00 +14°C° 0 mm 3 m/s 772 mmHg 71%
09:00 +17°C° 0 mm 4 m/s 773 mmHg 65%
10:00 +19°C° 0 mm 5 m/s 773 mmHg 59%
11:00 +20°C° 0 mm 5 m/s 772 mmHg 55%
12:00 +21°C° 0 mm 5 m/s 772 mmHg 52%
13:00 +22°C° 0 mm 5 m/s 771 mmHg 49%
14:00 +22°C° 0 mm 5 m/s 771 mmHg 51%
15:00 +22°C° 0 mm 5 m/s 770 mmHg 52%
16:00 +21°C° 0 mm 5 m/s 770 mmHg 54%
17:00 +20°C° 0 mm 5 m/s 770 mmHg 58%
18:00 +19°C° 0 mm 4 m/s 770 mmHg 62%
19:00 +17°C° 0 mm 3 m/s 770 mmHg 66%
20:00 +17°C° 0 mm 3 m/s 771 mmHg 67%
21:00 +16°C° 0 mm 3 m/s 771 mmHg 69%
22:00 +16°C° 0 mm 3 m/s 771 mmHg 70%
23:00 +14°C° 0 mm 3 m/s 771 mmHg 71%

Après-demain, 10 Mars, Mercredi

Heure Température Précipitation Vent Pression Humidité
00:00 +14°C° 0 mm 3 m/s 771 mmHg 72%
01:00 +15°C° 0 mm 2 m/s 770 mmHg 73%
02:00 +15°C° 0 mm 2 m/s 770 mmHg 73%
03:00 +15°C° 0 mm 2 m/s 770 mmHg 74%
04:00 +15°C° 0 mm 2 m/s 770 mmHg 75%
05:00 +15°C° 0 mm 2 m/s 770 mmHg 74%
06:00 +15°C° 0 mm 2 m/s 770 mmHg 72%
07:00 +14°C° 0 mm 3 m/s 770 mmHg 71%
08:00 +17°C° 0 mm 3 m/s 770 mmHg 65%
09:00 +19°C° 0 mm 4 m/s 770 mmHg 59%
10:00 +21°C° 0 mm 5 m/s 770 mmHg 52%
11:00 +22°C° 0 mm 5 m/s 770 mmHg 51%
12:00 +23°C° 0 mm 6 m/s 770 mmHg 50%
13:00 +24°C° 0 mm 6 m/s 769 mmHg 49%
14:00 +23°C° 0 mm 6 m/s 769 mmHg 50%
15:00 +23°C° 0 mm 6 m/s 768 mmHg 51%
16:00 +23°C° 0 mm 6 m/s 768 mmHg 52%
17:00 +21°C° 0 mm 5 m/s 768 mmHg 56%
18:00 +20°C° 0 mm 4 m/s 769 mmHg 60%
19:00 +18°C° 0 mm 4 m/s 769 mmHg 65%
20:00 +18°C° 0 mm 3 m/s 769 mmHg 67%
21:00 +17°C° 0 mm 3 m/s 769 mmHg 70%
22:00 +17°C° 0 mm 3 m/s 769 mmHg 73%
23:00 +16°C° 0 mm 3 m/s 769 mmHg 74%

11 Mars, Jeudi

Heure Température Précipitation Vent Pression Humidité
00:00 +16°C° 0 mm 3 m/s 769 mmHg 76%
01:00 +16°C° 0 mm 3 m/s 768 mmHg 78%
02:00 +16°C° 0 mm 3 m/s 768 mmHg 79%
03:00 +15°C° 0 mm 2 m/s 768 mmHg 81%
04:00 +15°C° 0 mm 2 m/s 768 mmHg 83%
05:00 +15°C° 0 mm 2 m/s 768 mmHg 84%
06:00 +15°C° 0 mm 2 m/s 768 mmHg 85%
07:00 +15°C° 0 mm 2 m/s 768 mmHg 87%
08:00 +18°C° 0 mm 3 m/s 768 mmHg 78%
09:00 +20°C° 0 mm 4 m/s 769 mmHg 69%
10:00 +22°C° 0 mm 5 m/s 769 mmHg 61%
11:00 +23°C° 0 mm 5 m/s 768 mmHg 58%
12:00 +24°C° 0 mm 6 m/s 768 mmHg 56%
13:00 +26°C° 0 mm 6 m/s 768 mmHg 54%
14:00 +26°C° 0 mm 6 m/s 767 mmHg 54%
15:00 +24°C° 0 mm 6 m/s 766 mmHg 55%
16:00 +24°C° 0 mm 6 m/s 766 mmHg 56%
17:00 +23°C° 0 mm 5 m/s 766 mmHg 62%
18:00 +21°C° 0 mm 5 m/s 767 mmHg 68%
19:00 +20°C° 0 mm 4 m/s 767 mmHg 74%
20:00 +19°C° 0 mm 4 m/s 767 mmHg 77%
21:00 +19°C° 0 mm 4 m/s 767 mmHg 80%
22:00 +18°C° 0 mm 4 m/s 768 mmHg 83%
23:00 +18°C° 0 mm 3 m/s 767 mmHg 84%

12 Mars, Vendredi

Heure Température Précipitation Vent Pression Humidité
00:00 +18°C° 0 mm 3 m/s 767 mmHg 85%
01:00 +17°C° 0 mm 3 m/s 767 mmHg 87%
02:00 +17°C° 0 mm 2 m/s 767 mmHg 88%
03:00 +17°C° 0 mm 2 m/s 767 mmHg 89%
04:00 +17°C° 0 mm 2 m/s 767 mmHg 91%
05:00 +17°C° 0 mm 2 m/s 767 mmHg 91%
06:00 +16°C° 0 mm 2 m/s 767 mmHg 91%
07:00 +16°C° 0 mm 2 m/s 767 mmHg 91%
08:00 +19°C° 0 mm 3 m/s 767 mmHg 80%
09:00 +21°C° 0 mm 4 m/s 768 mmHg 70%
10:00 +23°C° 0 mm 4 m/s 768 mmHg 59%
11:00 +25°C° 0 mm 5 m/s 767 mmHg 56%
12:00 +26°C° 0 mm 5 m/s 767 mmHg 53%
13:00 +27°C° 0 mm 5 m/s 767 mmHg 50%
14:00 +27°C° 0 mm 5 m/s 766 mmHg 51%
15:00 +27°C° 0 mm 5 m/s 766 mmHg 51%
16:00 +26°C° 0 mm 5 m/s 765 mmHg 52%
17:00 +25°C° 0 mm 5 m/s 766 mmHg 58%
18:00 +22°C° 0 mm 4 m/s 766 mmHg 64%
19:00 +21°C° 0 mm 4 m/s 766 mmHg 70%
20:00 +20°C° 0 mm 4 m/s 766 mmHg 74%
21:00 +19°C° 0 mm 3 m/s 766 mmHg 78%
22:00 +19°C° 0 mm 3 m/s 766 mmHg 83%
23:00 +18°C° 0 mm 3 m/s 766 mmHg 84%

13 Mars, Samedi

Heure Température Précipitation Vent Pression Humidité
00:00 +18°C° 0 mm 3 m/s 766 mmHg 86%
01:00 +18°C° 0 mm 3 m/s 766 mmHg 88%
02:00 +18°C° 0 mm 2 m/s 765 mmHg 88%
03:00 +17°C° 0 mm 2 m/s 765 mmHg 88%
04:00 +17°C° 0 mm 2 m/s 765 mmHg 89%
05:00 +17°C° 0 mm 2 m/s 765 mmHg 89%
06:00 +17°C° 0 mm 2 m/s 765 mmHg 89%
07:00 +17°C° 0 mm 2 m/s 765 mmHg 89%
08:00 +19°C° 0 mm 3 m/s 765 mmHg 80%
09:00 +22°C° 0 mm 4 m/s 765 mmHg 70%
10:00 +25°C° 0 mm 5 m/s 765 mmHg 61%
11:00 +26°C° 0 mm 4 m/s 765 mmHg 57%
12:00 +27°C° 0 mm 4 m/s 765 mmHg 52%
13:00 +28°C° 0 mm 4 m/s 765 mmHg 48%
14:00 +28°C° 0 mm 4 m/s 764 mmHg 49%
15:00 +28°C° 0 mm 5 m/s 764 mmHg 51%
16:00 +28°C° 0 mm 5 m/s 763 mmHg 52%
17:00 +26°C° 0 mm 4 m/s 763 mmHg 59%
18:00 +25°C° 0 mm 4 m/s 763 mmHg 65%
19:00 +22°C° 0 mm 4 m/s 763 mmHg 72%
20:00 +21°C° 0 mm 3 m/s 763 mmHg 77%
21:00 +20°C° 0 mm 3 m/s 763 mmHg 81%
22:00 +20°C° 0 mm 3 m/s 764 mmHg 86%
23:00 +19°C° 0 mm 2 m/s 763 mmHg 88%
Voir plus

Nous avons besoin de votre consentement

Meteoprog et ses fournisseurs de services peuvent stocker et accéder à des données personnelles telles que des cookies, des identifiants d'appareils ou d'autres technologies similaires sur votre appareil et traiter ces données pour personnaliser le contenu et les publicités, ainsi que pour fournir des fonctionnalités de médias sociaux et analyser le trafic.

  • Stocker et/ou accéder à des informations sur votre appareil

    Des cookies, des identifiants d'appareils ou d'autres informations peuvent être stockés ou accessibles sur votre appareil aux fins indiquées ci-dessus.

  • Annonces et contenus personnalisés, mesure des annonces et des contenus, connaissance de l'audience et développement de produits

    Les annonces et le contenu peuvent être personnalisés en fonction d'un profil. D'autres données peuvent être ajoutées pour mieux personnaliser les annonces et le contenu. Les performances des publicités et du contenu peuvent être mesurées. Il est possible d'obtenir des informations sur le public qui a vu les publicités et le contenu. Ces données peuvent être utilisées pour développer ou améliorer l'expérience de l'utilisateur, les systèmes et les logiciels.

En cliquant sur "J'accepte", vous autorisez l'utilisation de cookies, des identifiants d'appareils, des balises web ou d'autres technologies similaires. Vos paramètres peuvent être modifiés dans le navigateur de votre appareil.

Dans certains cas, des intérêts légitimes peuvent être invoqués plutôt qu'un consentement. Vous pouvez en savoir plus à ce sujet dans notre Politique de confidentialité et de cookies.